Weather History for KLTS - November, 2010

Change the Weather History Date:

Tuesday, November 2, 2010

  Actual Average Record
Temperature  
Mean Temperature 57 °F -  
Max Temperature 68 °F 64 °F 86 °F (2012)
Min Temperature 46 °F 42 °F 26 °F (2006)
Degree Days  
Heating Degree Days 8    
Growing Degree Days 7 (Base 50)    
Moisture  
Dew Point 39 °F    
Average Humidity 55    
Maximum Humidity 73    
Minimum Humidity 35    
Precipitation  
Precipitation 0.00 in - - ()
Sea Level Pressure  
Sea Level Pressure 30.20 in    
Wind  
Wind Speed 15 mph (North)    
Max Wind Speed 23 mph    
Max Gust Speed 32 mph    
Visibility 10 miles    
Events Thunderstorm    
Averages and records for this station are not official NWS values.
T = Trace of Precipitation, MM = Missing Value Source: NWS Daily Summary

Daily Weather History Graph

Daily Weather History Graph

Search for Another Location

Airport or City:

Trip Planner

Search our weather history database for the weather conditions in past years. The results will help you decide how hot, cold, wet, or windy it might be!

Date:

Astronomy

Nov. 02, 2010 Rise Set
Actual Time 7:58 AM CDT 6:42 PM CDT
Civil Twilight 7:32 AM CDT 7:08 PM CDT
Nautical Twilight 7:02 AM CDT 7:38 PM CDT
Astronomical Twilight 6:33 AM CDT 8:07 PM CDT
Moon 3:56 AM CDT (11/2) 4:14 PM CDT (11/2)
Length of Visible Light 11h 36m
Length of Day
10h 43m
Waning Crescent, 16% of the Moon is Illuminated
Nov 2
Waning Crescent
Nov 5
New
Nov 13
First Quarter
Nov 21
Full
Nov 28
Last Quarter

Hourly Weather History & Observations

Time (CDT) Temp. Dew Point Humidity Pressure Visibility Wind Dir Wind Speed Gust Speed Precip Events Conditions
12:55 AM 54.3 °F 40.8 °F 60% 30.20 in 10.0 mi North 16.1 mph - N/A   Scattered Clouds
1:55 AM 54.5 °F 41.2 °F 61% 30.20 in 10.0 mi North 15.0 mph - N/A Thunderstorm Mostly Cloudy
2:04 AM 53.6 °F 41.0 °F 62% 30.20 in 10.0 mi North 16.1 mph - N/A   Mostly Cloudy
2:55 AM 51.6 °F 40.8 °F 67% 30.19 in 10.0 mi North 9.2 mph - 0.00 in   Clear
3:55 AM 50.7 °F 40.6 °F 68% 30.18 in 10.0 mi North 15.0 mph 21.9 mph N/A   Clear
4:55 AM 49.5 °F 39.2 °F 68% 30.19 in 10.0 mi North 13.8 mph - N/A   Clear
5:55 AM 48.7 °F 38.7 °F 68% 30.20 in 10.0 mi North 11.5 mph - N/A   Clear
6:55 AM 48.0 °F 38.5 °F 70% 30.22 in 10.0 mi North 12.7 mph - N/A   Clear
7:55 AM 46.6 °F 38.5 °F 73% 30.23 in 10.0 mi North 12.7 mph - N/A   Clear
8:55 AM 48.6 °F 39.9 °F 72% 30.26 in 10.0 mi North 15.0 mph - N/A   Clear
9:55 AM 52.3 °F 41.4 °F 66% 30.27 in 10.0 mi North 18.4 mph - N/A   Clear
10:55 AM 56.1 °F 42.8 °F 61% 30.27 in 10.0 mi North 17.3 mph - N/A   Clear
11:55 AM 60.4 °F 44.6 °F 56% 30.25 in 10.0 mi NNW 18.4 mph 25.3 mph N/A   Clear
12:55 PM 63.5 °F 43.7 °F 48% 30.22 in 10.0 mi North 20.7 mph 31.1 mph N/A   Clear
1:55 PM 66.6 °F 41.7 °F 40% 30.18 in 10.0 mi North 23.0 mph 31.1 mph N/A   Clear
2:55 PM 68.0 °F 41.0 °F 37% 30.15 in 10.0 mi North 23.0 mph 32.2 mph N/A   Clear
3:55 PM 67.8 °F 39.7 °F 36% 30.14 in 10.0 mi North 23.0 mph - N/A   Clear
4:55 PM 67.6 °F 39.0 °F 35% 30.13 in 10.0 mi North 20.7 mph 26.5 mph N/A   Clear
5:55 PM 65.5 °F 36.7 °F 35% 30.14 in 10.0 mi NNE 17.3 mph 26.5 mph N/A   Clear
6:55 PM 60.1 °F 35.4 °F 40% 30.16 in 10.0 mi NNE 10.4 mph - N/A   Clear
7:55 PM 54.0 °F 36.1 °F 51% 30.18 in 10.0 mi North 10.4 mph - N/A   Clear
8:55 PM 49.8 °F 36.9 °F 61% 30.19 in 10.0 mi North 9.2 mph - N/A   Clear
9:55 PM 54.9 °F 36.9 °F 51% 30.19 in 10.0 mi North 13.8 mph - N/A   Clear
10:55 PM 54.1 °F 35.1 °F 49% 30.19 in 10.0 mi North 12.7 mph - N/A   Clear
11:55 PM 51.8 °F 33.3 °F 49% 30.19 in 10.0 mi NNE 11.5 mph - N/A   Clear